User: anonymous   Login
Location: Caltech
(34.1382°N, 118.1253°W)
Time: 05:35:37
(UTC-08:00)
Language:

Hamsat - Orbit

View from above orbital plane
View from above orbital plane
View from above satellite
View from above satellite

Ground track
Ground track

The orbit data is extracted from the following two-line orbital elements,

1 28650U 05017B   16343.85739723  .00000502  00000-0  59491-4 0  9994
2 28650  97.6281 318.9466 0024661  43.5242 316.7916 14.88506465627850
Epoch (UTC): 08 December 2016 20:34:39
Eccentricity: 0.0024661
inclination: 97.6281°
perigee height: 585 km
apogee height: 620 km
right ascension of ascending node: 318.9466°
argument of perigee: 43.5242°
revolutions per day: 14.88506465
mean anomaly at epoch: 316.7916°
orbit number at epoch: 62785

The dashed part of the orbit path shows where the satellite is in the earth's shadow,  

DLR